Change the Weather History Date:

Sunday, August 25, 2013

  Actual Average Record
Temperature  
Mean Temperature 81 °F 68 °F  
Max Temperature 91 °F 79 °F 95 °F (1948)
Min Temperature 71 °F 57 °F 43 °F (1958)
Degree Days  
Heating Degree Days 0 1  
Month to date heating degree days 23 14  
Since 1 June heating degree days 99 64  
Since 1 July heating degree days 45 23  
Cooling Degree Days 16 4  
Month to date cooling degree days 95 128  
Year to date cooling degree days 509 520  
Since 1 June cooling degree days 476 484  
Growing Degree Days 31 (Base 50)    
Moisture  
Dew Point 73 °F    
Average Humidity 78    
Maximum Humidity 100    
Minimum Humidity 56    
Precipitation  
Precipitation 0.00 in 0.11 in 0.72 in (1982)
Month to date precipitation 1.43 3.19  
Sea Level Pressure  
Sea Level Pressure 30.01 in    
Wind  
Wind Speed 13 mph (SSW)    
Max Wind Speed 22 mph    
Max Gust Speed 30 mph    
Visibility 8 miles    
Events      
T = Trace of Precipitation, MM = Missing Value Source: NWS Daily Summary

Daily Weather History Graph

Daily Weather History Graph

Search for Another Location

Airport or City:

Trip Planner

Search our weather history database for the weather conditions in past years. The results will help you decide how hot, cold, wet, or windy it might be!

Date:

Astronomy

Aug. 25, 2013 Rise Set
Actual Time 6:35 AM CDT 8:05 PM CDT
Civil Twilight 6:05 AM CDT 8:35 PM CDT
Nautical Twilight 5:29 AM CDT 9:11 PM CDT
Astronomical Twilight 4:50 AM CDT 9:49 PM CDT
Moon 10:26 PM CDT (8/25) 11:49 AM CDT (8/25)
Length of Visible Light 14h 29m
Length of Day
13h 30m
Waning Gibbous, 75% of the Moon is Illuminated
Aug 25
Waning Gibbous
Aug 28
Last Quarter
Sep 5
New
Sep 12
First Quarter
Sep 19
Full

Hourly Weather History & Observations

Time (CDT) Temp. Heat Index Dew Point Humidity Pressure Visibility Wind Dir Wind Speed Gust Speed Precip Events Conditions
12:52 AM 75.0 °F - 71.1 °F 87% 30.01 in 9.0 mi South 10.4 mph - N/A   Clear
1:52 AM 73.9 °F - 71.1 °F 91% 30.01 in 8.0 mi South 10.4 mph - N/A   Clear
2:52 AM 73.0 °F - 71.1 °F 93% 30.02 in 7.0 mi South 9.2 mph - N/A   Clear
3:52 AM 72.0 °F - 71.1 °F 97% 30.03 in 6.0 mi South 9.2 mph - N/A   Clear
4:52 AM 73.0 °F - 71.1 °F 93% 30.04 in 7.0 mi South 9.2 mph - N/A   Clear
5:52 AM 71.1 °F - 70.0 °F 96% 30.04 in 6.0 mi South 10.4 mph - N/A   Clear
6:52 AM 71.1 °F - 71.1 °F 100% 30.05 in 4.0 mi South 10.4 mph - N/A   Clear
7:52 AM 73.0 °F - 71.1 °F 93% 30.06 in 5.0 mi South 10.4 mph - N/A   Clear
8:52 AM 78.1 °F - 72.0 °F 81% 30.04 in 8.0 mi South 12.7 mph 25.3 mph N/A   Clear
9:52 AM 81.0 °F 85.2 °F 72.0 °F 74% 30.04 in 9.0 mi SSW 15.0 mph 21.9 mph N/A   Clear
10:52 AM 84.0 °F 90.2 °F 73.0 °F 69% 30.03 in 10.0 mi SSW 17.3 mph 23.0 mph N/A   Clear
11:52 AM 86.0 °F 93.8 °F 73.9 °F 67% 30.02 in 10.0 mi SSW 18.4 mph 24.2 mph N/A   Clear
12:52 PM 88.0 °F 95.6 °F 73.0 °F 61% 30.01 in 10.0 mi SSW 20.7 mph 29.9 mph N/A   Clear
1:52 PM 90.0 °F 99.0 °F 73.9 °F 59% 30.00 in 10.0 mi SSW 17.3 mph 24.2 mph N/A   Clear
2:52 PM 90.0 °F 100.2 °F 75.0 °F 61% 29.99 in 10.0 mi SSW 16.1 mph 25.3 mph N/A   Clear
3:52 PM 91.0 °F 99.3 °F 73.0 °F 55% 29.98 in 10.0 mi SSW 16.1 mph 26.5 mph N/A   Clear
4:52 PM 91.0 °F 99.3 °F 73.0 °F 55% 29.97 in 10.0 mi SSW 17.3 mph 27.6 mph N/A   Clear
5:52 PM 90.0 °F 99.0 °F 73.9 °F 59% 29.98 in 10.0 mi SSW 17.3 mph 24.2 mph N/A   Clear
6:52 PM 88.0 °F 97.5 °F 75.0 °F 65% 29.98 in 10.0 mi SSW 15.0 mph - N/A   Clear
7:52 PM 84.0 °F 91.9 °F 75.0 °F 74% 29.98 in 9.0 mi South 10.4 mph - N/A   Clear
8:52 PM 80.1 °F 85.1 °F 75.0 °F 85% 29.99 in 9.0 mi South 9.2 mph - N/A   Clear
9:52 PM 80.1 °F 85.4 °F 75.9 °F 87% 30.01 in 8.0 mi South 10.4 mph - N/A   Clear
10:52 PM 80.1 °F 85.1 °F 75.0 °F 85% 30.01 in 9.0 mi South 11.5 mph - N/A   Clear
11:52 PM 79.0 °F - 75.0 °F 88% 30.02 in 9.0 mi SSW 11.5 mph - N/A   Clear